Time,TemperatureF,DewpointF,PressureIn,WindDirection,WindDirectionDegrees,WindSpeedMPH,WindSpeedGustMPH,Humidity,HourlyPrecipIn,Conditions,Clouds,dailyrainin,SoftwareType,DateUTC
2013-01-27 10:02:00,21.0,4.0,30.33,North,0,5.0,9.0,46,0.00,,,0.00,,2013-01-27 15:02:00,
2013-01-27 10:12:00,21.0,4.0,30.33,North,0,5.0,9.0,46,0.00,,,0.00,,2013-01-27 15:12:00,
2013-01-27 10:22:00,21.0,4.0,30.34,SW,225,4.0,8.0,47,0.00,,,0.00,,2013-01-27 15:22:00,
2013-01-27 10:32:00,22.0,4.0,30.34,NE,45,4.0,10.0,45,0.00,,,0.00,,2013-01-27 15:32:00,
2013-01-27 10:42:00,22.0,4.0,30.34,NE,45,4.0,10.0,45,0.00,,,0.00,,2013-01-27 15:42:00,
2013-01-27 10:52:00,22.0,3.0,30.34,NNE,22,7.0,13.0,44,0.00,,,0.00,,2013-01-27 15:52:00,
2013-01-27 11:03:00,23.0,5.0,30.34,WSW,248,2.0,5.0,45,0.00,,,0.00,,2013-01-27 16:03:00,
2013-01-27 11:12:00,23.0,5.0,30.34,WSW,248,2.0,5.0,45,0.00,,,0.00,,2013-01-27 16:12:00,
2013-01-27 11:22:00,23.0,5.0,30.34,WSW,248,2.0,5.0,45,0.00,,,0.00,,2013-01-27 16:22:00,
2013-01-27 11:32:00,23.0,5.0,30.34,WSW,248,2.0,5.0,45,0.00,,,0.00,,2013-01-27 16:32:00,
2013-01-27 11:42:00,23.0,5.0,30.34,WSW,248,2.0,5.0,45,0.00,,,0.00,,2013-01-27 16:42:00,
2013-01-27 11:53:00,25.0,5.0,30.33,NNE,22,6.0,13.0,41,0.00,,,0.00,,2013-01-27 16:53:00,
2013-01-27 12:02:00,27.0,6.0,30.31,North,0,6.0,16.0,40,0.00,,,0.00,,2013-01-27 17:02:00,
2013-01-27 12:12:00,27.0,6.0,30.31,North,0,6.0,16.0,40,0.00,,,0.00,,2013-01-27 17:12:00,
2013-01-27 12:22:00,27.0,6.0,30.31,North,0,6.0,16.0,40,0.00,,,0.00,,2013-01-27 17:22:00,
2013-01-27 12:32:00,27.0,6.0,30.31,North,0,6.0,16.0,40,0.00,,,0.00,,2013-01-27 17:32:00,
2013-01-27 12:42:00,27.0,6.0,30.31,North,0,6.0,16.0,40,0.00,,,0.00,,2013-01-27 17:42:00,
2013-01-27 16:33:00,22.0,4.0,30.33,NNW,338,2.0,4.0,46,0.00,,,0.00,,2013-01-27 21:33:00,
2013-01-27 16:43:00,22.0,4.0,30.33,NNW,338,2.0,4.0,46,0.00,,,0.00,,2013-01-27 21:43:00,
2013-01-27 16:52:00,21.0,4.0,30.34,ENE,68,2.0,5.0,48,0.00,,,0.00,,2013-01-27 21:52:00,
2013-01-27 17:03:00,20.0,4.0,30.35,SSW,202,0.0,1.0,49,0.00,,,0.00,,2013-01-27 22:03:00,
2013-01-27 17:12:00,20.0,4.0,30.35,SSW,202,0.0,1.0,49,0.00,,,0.00,,2013-01-27 22:12:00,
2013-01-27 17:22:00,20.0,4.0,30.35,NW,315,1.0,3.0,50,0.00,,,0.00,,2013-01-27 22:22:00,
2013-01-27 17:32:00,19.0,3.0,30.37,West,270,4.0,7.0,50,0.00,,,0.00,,2013-01-27 22:32:00,
2013-01-27 17:42:00,19.0,3.0,30.37,West,270,4.0,7.0,50,0.00,,,0.00,,2013-01-27 22:42:00,
2013-01-27 17:52:00,19.0,4.0,30.37,NE,45,2.0,6.0,51,0.00,,,0.00,,2013-01-27 22:52:00,
2013-01-27 18:02:00,18.0,3.0,30.38,South,180,1.0,3.0,51,0.00,,,0.00,,2013-01-27 23:02:00,
2013-01-27 18:12:00,18.0,3.0,30.38,South,180,1.0,3.0,51,0.00,,,0.00,,2013-01-27 23:12:00,
2013-01-27 18:22:00,18.0,3.0,30.38,South,180,1.0,3.0,51,0.00,,,0.00,,2013-01-27 23:22:00,
2013-01-27 18:32:00,18.0,3.0,30.38,South,180,1.0,3.0,51,0.00,,,0.00,,2013-01-27 23:32:00,